When you browse on this site, cookies collect data to enhance your experience and personalize the content and advertising you see.
Visit our Privacy Policy to learn more. By continuing to use the site, you agree to this use of cookies and data.
  • In Österreich
  • Länderverzeichnis
  • Für 7 Tage
  • Wassertemperatur
  • Satellitenkarten
  • Wetterkarte
  • News
  • Widgets
  • user-avatar
    Anmelden

    Stündliche Wetter Namibe

    Heute, 24 März, Sonntag

    Zeit Temperatur Niederschläge Wind Luftdruck Luftfeuchtigkeit
    00:00 +28°C° 0.2 mm 3 m/S 757 mmHg 78%
    01:00 +27°C° 0 mm 2 m/S 758 mmHg 79%
    02:00 +27°C° 0.7 mm 2 m/S 757 mmHg 80%
    03:00 +27°C° 0.7 mm 2 m/S 757 mmHg 80%
    04:00 +27°C° 0.7 mm 2 m/S 757 mmHg 81%
    05:00 +27°C° 0.6 mm 2 m/S 757 mmHg 81%
    06:00 +27°C° 0.6 mm 1 m/S 757 mmHg 81%
    07:00 +27°C° 0 mm 1 m/S 757 mmHg 79%
    08:00 +29°C° 0.2 mm 1 m/S 758 mmHg 72%
    09:00 +30°C° 0.2 mm 1 m/S 758 mmHg 65%
    10:00 +32°C° 0.2 mm 1 m/S 758 mmHg 59%
    11:00 +32°C° 0 mm 2 m/S 757 mmHg 57%
    12:00 +34°C° 0 mm 4 m/S 757 mmHg 55%
    13:00 +35°C° 0 mm 5 m/S 756 mmHg 54%
    14:00 +34°C° 0 mm 6 m/S 756 mmHg 56%
    15:00 +33°C° 0 mm 6 m/S 755 mmHg 59%
    16:00 +32°C° 0 mm 6 m/S 755 mmHg 62%
    17:00 +30°C° 0 mm 6 m/S 755 mmHg 62%
    18:00 +30°C° 0 mm 6 m/S 756 mmHg 63%
    19:00 +29°C° 0 mm 6 m/S 756 mmHg 63%
    20:00 +29°C° 0 mm 5 m/S 756 mmHg 62%
    21:00 +29°C° 0 mm 4 m/S 757 mmHg 60%
    22:00 +29°C° 0 mm 3 m/S 757 mmHg 59%
    23:00 +29°C° 0.3 mm 4 m/S 757 mmHg 61%

    Morgen, 25 März, Montag

    Zeit Temperatur Niederschläge Wind Luftdruck Luftfeuchtigkeit
    00:00 +28°C° 0.3 mm 4 m/S 757 mmHg 63%
    01:00 +28°C° 0.3 mm 4 m/S 757 mmHg 65%
    02:00 +28°C° 0.2 mm 4 m/S 756 mmHg 65%
    03:00 +28°C° 0.2 mm 4 m/S 756 mmHg 65%
    04:00 +28°C° 0.2 mm 3 m/S 756 mmHg 65%
    05:00 +28°C° 0 mm 3 m/S 756 mmHg 64%
    06:00 +28°C° 0 mm 3 m/S 756 mmHg 63%
    07:00 +28°C° 0 mm 2 m/S 756 mmHg 62%
    08:00 +29°C° 0 mm 2 m/S 756 mmHg 59%
    09:00 +30°C° 0 mm 2 m/S 756 mmHg 56%
    10:00 +31°C° 0 mm 2 m/S 757 mmHg 53%
    11:00 +31°C° 0 mm 3 m/S 756 mmHg 54%
    12:00 +32°C° 0 mm 4 m/S 756 mmHg 56%
    13:00 +32°C° 0 mm 5 m/S 755 mmHg 57%
    14:00 +32°C° 0 mm 5 m/S 755 mmHg 58%
    15:00 +30°C° 0 mm 4 m/S 754 mmHg 58%
    16:00 +30°C° 0 mm 4 m/S 754 mmHg 59%
    17:00 +29°C° 0 mm 4 m/S 754 mmHg 63%
    18:00 +28°C° 0 mm 3 m/S 755 mmHg 66%
    19:00 +27°C° 0 mm 3 m/S 755 mmHg 70%
    20:00 +27°C° 0 mm 2 m/S 756 mmHg 71%
    21:00 +27°C° 0 mm 2 m/S 757 mmHg 72%
    22:00 +27°C° 0 mm 2 m/S 757 mmHg 73%
    23:00 +26°C° 0 mm 2 m/S 757 mmHg 74%

    übermorgen, 26 März, Dienstag

    Zeit Temperatur Niederschläge Wind Luftdruck Luftfeuchtigkeit
    00:00 +26°C° 0 mm 2 m/S 757 mmHg 75%
    01:00 +26°C° 0 mm 2 m/S 757 mmHg 75%
    02:00 +26°C° 0 mm 2 m/S 757 mmHg 77%
    03:00 +26°C° 0 mm 2 m/S 757 mmHg 79%
    04:00 +26°C° 0 mm 2 m/S 756 mmHg 81%
    05:00 +25°C° 0 mm 2 m/S 757 mmHg 81%
    06:00 +25°C° 0 mm 2 m/S 757 mmHg 82%
    07:00 +25°C° 0 mm 1 m/S 757 mmHg 83%
    08:00 +26°C° 0 mm 2 m/S 758 mmHg 80%
    09:00 +27°C° 0 mm 2 m/S 758 mmHg 77%
    10:00 +27°C° 0 mm 3 m/S 759 mmHg 73%
    11:00 +27°C° 0 mm 3 m/S 758 mmHg 74%
    12:00 +27°C° 0 mm 3 m/S 757 mmHg 74%
    13:00 +27°C° 0 mm 2 m/S 757 mmHg 75%
    14:00 +28°C° 0 mm 3 m/S 756 mmHg 73%
    15:00 +28°C° 0 mm 3 m/S 756 mmHg 70%
    16:00 +29°C° 0 mm 4 m/S 755 mmHg 68%
    17:00 +28°C° 0 mm 3 m/S 756 mmHg 70%
    18:00 +27°C° 0 mm 3 m/S 756 mmHg 72%
    19:00 +26°C° 0 mm 2 m/S 757 mmHg 74%
    20:00 +26°C° 0 mm 2 m/S 758 mmHg 75%
    21:00 +26°C° 0 mm 1 m/S 759 mmHg 75%
    22:00 +26°C° 0 mm 1 m/S 759 mmHg 76%
    23:00 +26°C° 0 mm 1 m/S 759 mmHg 76%

    27 März, Mittwoch

    Zeit Temperatur Niederschläge Wind Luftdruck Luftfeuchtigkeit
    00:00 +26°C° 0 mm 1 m/S 759 mmHg 76%
    01:00 +26°C° 0 mm 1 m/S 759 mmHg 76%
    02:00 +26°C° 0 mm 1 m/S 758 mmHg 76%
    03:00 +26°C° 0 mm 1 m/S 758 mmHg 76%
    04:00 +27°C° 0 mm 1 m/S 757 mmHg 76%
    05:00 +27°C° 0 mm 1 m/S 757 mmHg 75%
    06:00 +27°C° 0 mm 1 m/S 758 mmHg 74%
    07:00 +27°C° 0 mm 2 m/S 758 mmHg 73%
    08:00 +29°C° 0 mm 2 m/S 758 mmHg 68%
    09:00 +30°C° 0 mm 2 m/S 758 mmHg 63%
    10:00 +31°C° 0 mm 3 m/S 759 mmHg 58%
    11:00 +33°C° 0 mm 3 m/S 758 mmHg 56%
    12:00 +34°C° 0 mm 4 m/S 757 mmHg 53%
    13:00 +35°C° 0 mm 5 m/S 756 mmHg 50%
    14:00 +34°C° 0 mm 5 m/S 756 mmHg 53%
    15:00 +33°C° 0 mm 5 m/S 756 mmHg 56%
    16:00 +32°C° 0 mm 6 m/S 755 mmHg 58%
    17:00 +30°C° 0 mm 5 m/S 756 mmHg 61%
    18:00 +29°C° 0 mm 4 m/S 757 mmHg 64%
    19:00 +28°C° 0 mm 3 m/S 757 mmHg 67%
    20:00 +28°C° 0.2 mm 3 m/S 758 mmHg 66%
    21:00 +28°C° 0.2 mm 2 m/S 759 mmHg 65%
    22:00 +29°C° 0.2 mm 2 m/S 759 mmHg 64%
    23:00 +28°C° 0.4 mm 2 m/S 759 mmHg 65%

    28 März, Donnerstag

    Zeit Temperatur Niederschläge Wind Luftdruck Luftfeuchtigkeit
    00:00 +28°C° 0.4 mm 2 m/S 759 mmHg 66%
    01:00 +28°C° 0.4 mm 2 m/S 758 mmHg 66%
    02:00 +28°C° 0.1 mm 2 m/S 758 mmHg 66%
    03:00 +28°C° 0.1 mm 3 m/S 758 mmHg 65%
    04:00 +28°C° 0.1 mm 3 m/S 757 mmHg 65%
    05:00 +28°C° 0.3 mm 3 m/S 758 mmHg 64%
    06:00 +28°C° 0.3 mm 3 m/S 758 mmHg 63%
    07:00 +29°C° 0.3 mm 3 m/S 758 mmHg 62%
    08:00 +30°C° 0 mm 3 m/S 758 mmHg 57%
    09:00 +31°C° 0 mm 3 m/S 758 mmHg 52%
    10:00 +34°C° 0 mm 3 m/S 758 mmHg 46%
    11:00 +35°C° 0 mm 3 m/S 757 mmHg 45%
    12:00 +36°C° 0 mm 4 m/S 757 mmHg 43%
    13:00 +37°C° 0 mm 5 m/S 756 mmHg 41%
    14:00 +36°C° 0.1 mm 5 m/S 755 mmHg 43%
    15:00 +35°C° 0.1 mm 5 m/S 755 mmHg 46%
    16:00 +34°C° 0.1 mm 6 m/S 754 mmHg 48%
    17:00 +33°C° 0.3 mm 5 m/S 755 mmHg 51%
    18:00 +32°C° 0.3 mm 4 m/S 756 mmHg 55%
    19:00 +30°C° 0.3 mm 3 m/S 756 mmHg 58%
    20:00 +29°C° 0.8 mm 2 m/S 757 mmHg 61%
    21:00 +29°C° 0.8 mm 2 m/S 757 mmHg 64%
    22:00 +28°C° 0.8 mm 2 m/S 758 mmHg 67%
    23:00 +28°C° 2 mm 2 m/S 758 mmHg 69%

    29 März, Freitag

    Zeit Temperatur Niederschläge Wind Luftdruck Luftfeuchtigkeit
    00:00 +28°C° 2 mm 2 m/S 758 mmHg 72%
    01:00 +27°C° 2 mm 2 m/S 758 mmHg 74%
    02:00 +28°C° 1.6 mm 1 m/S 757 mmHg 74%
    03:00 +28°C° 1.6 mm 1 m/S 757 mmHg 74%
    04:00 +28°C° 1.6 mm 1 m/S 757 mmHg 73%
    05:00 +28°C° 1 mm 1 m/S 757 mmHg 73%
    06:00 +28°C° 1 mm 1 m/S 757 mmHg 73%
    07:00 +28°C° 1 mm 1 m/S 758 mmHg 73%
    08:00 +29°C° 0 mm 1 m/S 758 mmHg 68%
    09:00 +30°C° 0 mm 1 m/S 758 mmHg 63%
    10:00 +31°C° 0 mm 1 m/S 758 mmHg 58%
    11:00 +32°C° 0 mm 2 m/S 757 mmHg 55%
    12:00 +34°C° 0 mm 3 m/S 756 mmHg 53%
    13:00 +36°C° 0 mm 5 m/S 756 mmHg 50%
    14:00 +35°C° 0.3 mm 5 m/S 755 mmHg 54%
    15:00 +34°C° 0.3 mm 5 m/S 755 mmHg 57%
    16:00 +33°C° 0.3 mm 5 m/S 754 mmHg 60%
    17:00 +32°C° 0.4 mm 5 m/S 755 mmHg 63%
    18:00 +30°C° 0.4 mm 4 m/S 755 mmHg 66%
    19:00 +29°C° 0.4 mm 4 m/S 756 mmHg 69%
    20:00 +29°C° 0.4 mm 4 m/S 756 mmHg 68%
    21:00 +29°C° 0.4 mm 3 m/S 757 mmHg 67%
    22:00 +29°C° 0.4 mm 2 m/S 757 mmHg 66%
    23:00 +29°C° 0.8 mm 2 m/S 757 mmHg 69%
    Mehr zeigen